Location: Sorocaba
(23.4830°S, 47.4500°W)
Time: 11:32:49
(UTC-03:00)

N. Korean satellite - Pass Details

Date: 21 May 2022
Orbit: 432 x 477 km, 97.3° (Epoch: 03 July)

Event Time Altitude Azimuth Distance (km) Brightness Sun altitude
Rises 18:05:04 0° 197° (SSW) 2,467 10.1 -7.7°
Reaches altitude 10° 18:08:06 10° 228° (SW) 1,596 9.6 -8.3°
Maximum altitude 18:09:33 12° 253° (WSW) 1,462 9.9 -8.6°
Drops below altitude 10° 18:11:00 10° 278° (W) 1,599 10.8 -8.9°
Sets 18:14:04 0° 309° (NW) 2,475 11.6 -9.6°
